Terminal Aerodrome Forecast
Issued by NWS Houston/Galveston, TX

Home | Current Version | Previous Version | Text Only | Print | Product List | Glossary On
Versions: 1 2 3 4 5 6 7 8 9 10 11 12 13 14 15 16 17 18 19 20 21 22 23 24 25 26 27 28 29 30 31 32 33 34 35 36 37 38 39 40 41
000
FTUS44 KHGX 230524
TAFGLS
TAF
KGLS 230524Z 2306/2406 10011KT P6SM FEW012 SCT021
      TEMPO 2306/2310 SCT006 BKN012
     FM231000 11011KT P6SM VCSH SCT006 BKN012
     FM231500 13012KT P6SM VCSH SCT015 BKN025
     FM231800 14013KT P6SM VCTS SCT025 BKN035CB
     FM240300 14016KT P6SM VCSH BKN015 BKN025=

USA.gov is the U.S. government's official web portal to all federal, state and local government web resources and services.